Regional Weather Roundup
Issued by NWS Northern Indiana

Home | Current Version | Previous Version | Text Only | Print | Product List | Glossary Off
Versions: 1 2 3 4 5 6 7 8 9 10 11 12 13 14 15 16 17 18 19 20 21 22 23 24 25 26 27 28 29 30 31 32 33 34 35 36 37 38 39 40 41 42 43 44 45 46 47 48 49 50

000
ASUS43 KIWX 281300
RWRIWX

KIWX WEATHER ROUNDUP
NATIONAL WEATHER SERVICE NORTHERN INDIANA
800 AM EST SUN DEC 28 2014

NOTE: "FAIR" INDICATES FEW OR NO CLOUDS BELOW 12,000 FEET WITH NO
SIGNIFICANT WEATHER AND/OR OBSTRUCTIONS TO VISIBILITY.

* THESE STATIONS ARE NOT UNDER NWS QUALITY CONTROL. THEY ALSO MAY NOT
  REPORT WEATHER SUCH AS PRECIPITATION OR FOG.

INZ001>027-281400-
NORTHERN INDIANA

CITY           SKY/WX    TMP DP  RH WIND       PRES   REMARKS
GARY*          CLOUDY    28  19  69 W8        30.16R WCI  20
KNOX*          CLOUDY    31  23  73 W5        30.13F WCI  26
SOUTH BEND     CLOUDY    32  25  75 NW6       30.12F WCI  26
GOSHEN         CLOUDY    33  25  72 NW10      30.10S WCI  25
WARSAW*        CLOUDY    32  28  86 W9        30.11F WCI  24
ANGOLA*        CLOUDY    34  27  75 NW6       30.08S WCI  29
FORT WAYNE     CLOUDY    33  30  88 W9        30.12R WCI  25

$$
INZ028>050-281400-
CENTRAL INDIANA

CITY           SKY/WX    TMP DP  RH WIND       PRES   REMARKS
LAFAYETTE      CLOUDY    28  25  88 NW6       30.16F WCI  22
KOKOMO*        CLOUDY    30  25  80 W9        30.14R WCI  22
MUNCIE*        CLOUDY    32  27  81 NW8       30.12R WCI  25
INDIANAPOLIS   CLOUDY    30  26  85 NW9       30.14S WCI  22

$$
MIZ043>046-050>051-056>058-064>065-071>073-077>080-281400-
SOUTHWEST LOWER MICHIGAN

CITY           SKY/WX    TMP DP  RH WIND       PRES   REMARKS
BATTLE CREEK   MOCLDY    32  25  75 NW12      30.08S WCI  23
BENTON HARBOR  MOCLDY    30  22  72 NW5       30.12F WCI  25
COLDWATER*     CLOUDY    32  28  83 W10       30.08S WCI  24
HILLSDALE*     CLOUDY    33  32  94 W9        30.06S WCI  26
HOLLAND        CLOUDY    33  23  66 NW7       30.10F WCI  27
GRAND RAPIDS   CLOUDY    31  23  72 W14       30.09R WCI  21
KALAMAZOO      CLOUDY    32  24  72 W8        30.09F WCI  25
STURGIS*       CLOUDY    32  27  80 NW8       30.09S WCI  25
THREE RIVERS*  CLOUDY    32  25  76 W10       30.10F WCI  24

$$
OHZ001>008-015>018-024>025-281400-
NORTHWEST OHIO

CITY           SKY/WX    TMP DP  RH WIND       PRES   REMARKS
DEFIANCE       CLOUDY    35  29  78 W5        30.09S WCI  31
FINDLAY        CLOUDY    34  30  85 SW5       30.08S WCI  30
TOLEDO EXPRESS CLOUDY    34  30  85 W6        30.08S WCI  29
TOLEDO METCALF CLOUDY    35  30  82 W7        30.08S WCI  29
LIMA           CLOUDY    35  30  82 W7        30.09S WCI  29

$$
AND FOR LAKE MICHIGAN COASTAL AND OPEN LAKE BUOY OBSERVATIONS

STATION/POSITION TEMP    WIND        PRES    VSBY  WAVE
                 AIR SEA DIR/SP/G                  HT/PER
                 (F)     (DEG/KT/KT) (MB)    (MI)  (FT/S)
CALUMET HARBOR    27     230/  5/  8 1019.8R
MICHIGAN CITY     31     290/ 11/ 14   N/A
SAINT JOSEPH      33     300/  8/ 13 1020.0S

$$
&&


USA.gov is the U.S. government's official web portal to all federal, state and local government web resources and services.